Location: Calgary
(51.0833°N, 114.0833°W)
Time: 01:29:21
(UTC-06:00)

ISS - Visible Passes

Search period start: 25 September 2018 00:00
Search period end: 05 October 2018 00:00
Orbit: 403 x 408 km, 51.6° (Epoch: 25 September)

Date Brightness Start Highest point End Pass type
(mag) Time Alt. Az. Time Alt. Az. Time Alt. Az.
25 Sep -3.3 20:45:07 10° SW 20:48:15 41° SSE 20:49:31 27° ESE visible
25 Sep -1.1 22:21:20 10° W 22:22:13 17° W 22:22:13 17° W visible
26 Sep -2.6 19:53:37 10° SSW 19:56:29 28° SSE 19:59:23 10° E visible
26 Sep -3.8 21:29:27 10° WSW 21:32:29 73° WSW 21:32:29 73° WSW visible
27 Sep -3.8 20:37:37 10° WSW 20:40:53 66° SSE 20:42:41 24° E visible
27 Sep -1.3 22:14:06 10° W 22:15:21 21° W 22:15:21 21° W visible
28 Sep -3.9 21:22:11 10° W 21:25:28 80° NNW 21:25:28 80° NNW visible
29 Sep -3.9 20:30:15 10° W 20:33:33 90° WNW 20:35:33 22° E visible
29 Sep -1.4 22:06:49 10° W 22:08:13 23° W 22:08:13 23° W visible
30 Sep -3.9 21:14:53 10° W 21:18:11 80° N 21:18:15 79° NNE visible
01 Oct -3.8 20:22:55 10° W 20:26:13 79° N 20:28:15 21° E visible
01 Oct -1.5 21:59:28 10° W 22:00:55 24° W 22:00:55 24° W visible
02 Oct -4.0 21:07:31 10° W 21:10:49 87° SSW 21:10:55 83° SE visible
03 Oct -3.8 20:15:32 10° W 20:18:51 82° N 20:20:55 21° E visible
03 Oct -1.5 21:52:06 10° W 21:53:35 23° W 21:53:35 23° W visible
04 Oct -3.7 21:00:05 10° W 21:03:21 61° SSW 21:03:36 59° S visible
